VE3WXA Weather Reports


time (UTC)temp
C
wind
direction
speed
KPH
gust
KPH
rain 1hr
cm
rain 24hr
cm
rain mn
cm
humidity
%
barometer
mb
20260506044703 9 221 3.2 8.0 0.00 0.23 0.00 91 1007.3
20260506044205 9 229 1.6 8.0 0.00 0.23 0.00 91 1007.3
20260506043704 9 234 3.2 9.7 0.00 0.23 0.00 91 1007.4
20260506043203 9 263 3.2 9.7 0.00 0.23 0.00 91 1007.4
20260506042703 9 219 3.2 8.0 0.00 0.23 0.00 92 1007.3
20260506042204 9 163 3.2 6.4 0.00 0.23 0.00 92 1007.3
20260506041945 9 243 1.6 6.4 0.00 0.23 0.00 94 1007.4
20260506041203 9 215 3.2 11.3 0.00 0.23 0.00 94 1007.4
20260506040703 9 0 3.2 11.3 0.00 0.23 0.00 94 1007.3
20260506040204 9 219 3.2 8.0 0.00 0.23 0.00 94 1007.4
20260506035702 9 230 3.2 8.0 0.00 0.23 0.23 94 1007.3
20260506035202 9 177 3.2 6.4 0.00 0.23 0.23 94 1007.3
20260506034702 9 236 3.2 6.4 0.00 0.23 0.23 94 1007.3
20260506034202 9 241 3.2 9.7 0.00 0.23 0.23 94 1007.3
20260506034018 10 217 3.2 8.0 0.00 0.23 0.23 93 1007.2
20260506033725 10 259 3.2 9.7 0.00 0.23 0.23 94 1007.3
20260506032702 10 229 3.2 8.0 0.00 0.23 0.23 93 1007.2
20260506032203 10 231 3.2 8.0 0.00 0.23 0.23 93 1007.2
20260506031702 10 230 3.2 8.0 0.00 0.23 0.23 93 1007.3
20260506031202 10 242 3.2 8.0 0.00 0.23 0.23 93 1007.3
20260506030702 10 128 3.2 8.0 0.00 0.23 0.23 94 1007.4
20260506030201 10 235 3.2 9.7 0.00 0.23 0.23 93 1007.7
20260506025702 10 239 3.2 9.7 0.00 0.23 0.23 93 1007.7
20260506025202 10 232 3.2 8.0 0.00 0.23 0.23 93 1007.5
20260506024944 10 210 3.2 8.0 0.00 0.23 0.23 93 1007.4
20260506024445 10 234 1.6 6.4 0.00 0.23 0.23 93 1007.5
20260506023701 10 209 1.6 4.8 0.00 0.23 0.23 92 1007.4
20260506023203 10 229 1.6 4.8 0.00 0.23 0.23 92 1007.4
20260506022703 10 228 1.6 4.8 0.00 0.23 0.23 91 1007.3
20260506022202 10 0 1.6 6.4 0.00 0.23 0.23 91 1007.2
20260506021702 10 229 1.6 6.4 0.00 0.23 0.23 91 1007.2
20260506021447 10 223 1.6 4.8 0.00 0.23 0.23 90 1007.2
20260506020703 10 237 1.6 4.8 0.00 0.23 0.23 90 1007.3
20260506020446 10 228 1.6 6.4 0.00 0.23 0.23 90 1007.3
20260506015703 10 0 1.6 6.4 0.00 0.23 0.23 89 1007.4
20260506015445 10 208 0.0 3.2 0.00 0.23 0.23 89 1007.2
20260506014701 10 172 0.0 3.2 0.00 0.23 0.23 89 1007.2
20260506014201 10 0 0.0 4.8 0.00 0.23 0.23 89 1007.2
20260506013701 10 215 0.0 4.8 0.00 0.23 0.23 89 1007.2
20260506013202 10 235 0.0 3.2 0.00 0.28 0.23 89 1007.3
20260506012702 10 0 0.0 3.2 0.00 0.28 0.23 89 1007.3
20260506012445 10 0 0.0 3.2 0.00 0.28 0.23 88 1007.3
20260506011702 10 200 0.0 3.2 0.00 0.28 0.23 88 1007.3
20260506011203 10 164 0.0 3.2 0.00 0.28 0.23 89 1007.2
20260506010703 10 0 0.0 3.2 0.00 0.28 0.23 88 1007.1
20260506010203 10 237 0.0 3.2 0.00 0.28 0.23 88 1007.1
20260506005946 10 0 0.0 3.2 0.00 0.28 0.23 88 1007.1
20260506005203 10 0 0.0 3.2 0.00 0.28 0.23 88 1007.0
20260506004702 10 211 0.0 3.2 0.00 0.28 0.23 87 1007.0
20260506004202 10 0 0.0 3.2 0.00 0.28 0.23 87 1007.0
20260506003702 10 0 0.0 3.2 0.00 0.28 0.23 87 1006.8
20260506003200 10 0 0.0 3.2 0.00 0.28 0.23 86 1006.9
20260506002701 10 211 0.0 3.2 0.00 0.28 0.23 86 1006.9
20260506002202 10 0 0.0 3.2 0.00 0.28 0.23 85 1006.8
20260506001701 10 0 0.0 3.2 0.00 0.28 0.23 85 1006.8
20260506001201 10 0 0.0 3.2 0.00 0.28 0.23 84 1006.7
20260506000701 11 133 0.0 4.8 0.00 0.28 0.23 84 1006.6
20260506000201 11 0 1.6 4.8 0.00 0.28 0.23 84 1006.5
20260505235950 11 156 0.0 4.8 0.00 0.28 0.23 84 1006.5
20260505235201 11 0 0.0 4.8 0.00 0.28 0.23 84 1006.4
20260505234701 11 0 1.6 3.2 0.00 0.28 0.23 84 1006.3
20260505234202 11 0 0.0 3.2 0.00 0.28 0.23 84 1006.3
20260505233701 11 0 0.0 3.2 0.00 0.28 0.23 84 1006.4
20260505233200 11 138 0.0 3.2 0.00 0.28 0.23 84 1006.4
20260505232700 11 0 0.0 3.2 0.00 0.28 0.23 83 1006.4
20260505232200 11 167 0.0 3.2 0.00 0.28 0.23 83 1006.4
20260505231949 11 0 0.0 0.0 0.00 0.28 0.23 83 1006.5
20260505231201 11 0 0.0 3.2 0.00 0.28 0.23 83 1006.5
20260505230701 11 0 1.6 4.8 0.00 0.28 0.23 83 1006.4
20260505230200 11 0 1.6 4.8 0.00 0.28 0.23 82 1006.5
20260505225949 11 210 1.6 6.4 0.00 0.28 0.23 83 1006.5
20260505225202 11 229 1.6 6.4 0.00 0.28 0.23 82 1006.6
20260505224702 11 231 1.6 6.4 0.00 0.28 0.23 82 1006.6
20260505224203 11 228 3.2 6.4 0.00 0.28 0.23 81 1006.6
20260505223701 11 220 3.2 6.4 0.00 0.28 0.23 80 1006.7
20260505223201 11 187 1.6 6.4 0.00 0.28 0.23 81 1006.7
20260505222701 11 235 1.6 6.4 0.00 0.28 0.23 80 1006.6
20260505222201 11 180 1.6 6.4 0.00 0.28 0.23 80 1006.6
20260505221701 11 186 1.6 6.4 0.00 0.28 0.23 82 1006.6
20260505221201 11 224 1.6 6.4 0.00 0.28 0.23 81 1006.5
20260505220701 11 240 1.6 6.4 0.00 0.28 0.23 80 1006.5
20260505220201 11 212 1.6 6.4 0.00 0.28 0.23 80 1006.5
20260505215948 11 0 1.6 6.4 0.00 0.28 0.23 81 1006.6
20260505215202 11 234 3.2 8.0 0.00 0.28 0.23 81 1006.6
20260505214702 11 0 3.2 8.0 0.00 0.28 0.23 80 1006.6
20260505214201 11 0 3.2 9.7 0.00 0.28 0.23 81 1006.5
20260505213701 11 219 3.2 9.7 0.00 0.28 0.23 80 1006.6
20260505213201 11 221 3.2 6.4 0.00 0.28 0.23 80 1006.5
20260505212701 10 214 1.6 6.4 0.00 0.28 0.23 79 1006.5
20260505212200 10 0 0.0 3.2 0.00 0.28 0.23 80 1006.7
20260505211701 10 0 0.0 6.4 0.00 0.28 0.23 80 1006.8
20260505211201 10 0 1.6 8.0 0.00 0.28 0.23 80 1006.8
20260505210701 10 0 3.2 8.0 0.00 0.28 0.23 80 1006.7
20260505210201 10 233 1.6 6.4 0.00 0.28 0.23 80 1006.7
20260505205701 10 154 0.0 3.2 0.00 0.28 0.23 82 1006.6
20260505205449 10 185 0.0 3.2 0.00 0.28 0.23 81 1006.7
20260505204701 10 0 0.0 3.2 0.00 0.28 0.23 82 1006.8
20260505204201 10 326 0.0 3.2 0.00 0.28 0.23 81 1006.8
20260505203701 10 0 0.0 3.2 0.00 0.28 0.23 82 1006.9
20260505203201 10 0 0.0 4.8 0.00 0.28 0.23 81 1006.8
20260505202702 10 238 0.0 4.8 0.00 0.28 0.23 82 1006.9
20260505202202 10 0 0.0 4.8 0.00 0.28 0.23 82 1006.8
20260505201702 10 0 0.0 3.2 0.00 0.28 0.23 81 1006.9
20260505201202 10 0 0.0 4.8 0.00 0.28 0.23 81 1007.1
20260505200701 10 0 1.6 6.4 0.00 0.28 0.23 82 1007.2
20260505200201 10 103 1.6 6.4 0.00 0.28 0.23 81 1007.2
20260505195951 10 186 1.6 6.4 0.00 0.28 0.23 82 1007.2
20260505195201 10 0 1.6 6.4 0.00 0.28 0.23 83 1007.1
20260505194700 10 0 1.6 6.4 0.00 0.28 0.23 82 1007.1
20260505194201 10 0 0.0 3.2 0.00 0.28 0.23 82 1007.1
20260505193702 10 0 0.0 6.4 0.00 0.28 0.23 82 1007.2
20260505193203 10 0 1.6 6.4 0.03 0.28 0.23 82 1007.0
20260505192703 10 226 1.6 6.4 0.05 0.28 0.23 81 1006.9
20260505192202 10 252 0.0 4.8 0.05 0.28 0.23 82 1006.9
20260505191702 10 242 0.0 3.2 0.05 0.28 0.23 83 1006.7
20260505191202 9 0 0.0 3.2 0.05 0.28 0.23 83 1006.8
20260505190701 9 0 1.6 6.4 0.05 0.28 0.23 84 1006.9
20260505190201 9 205 1.6 6.4 0.08 0.28 0.23 80 1006.8
20260505185701 9 238 1.6 6.4 0.10 0.28 0.23 82 1006.8
20260505185244 9 266 0.0 3.2 0.18 0.28 0.23 84 1006.7
20260505185226 9 0 0.0 4.8 0.15 0.28 0.23 82 1006.7
20260505184204 9 0 0.0 6.4 0.18 0.28 0.23 82 1007.0
20260505183706 9 0 1.6 6.4 0.18 0.28 0.23 79 1007.1
20260505183202 9 237 1.6 6.4 0.18 0.25 0.20 78 1007.1
20260505182701 10 258 1.6 4.8 0.18 0.25 0.20 80 1006.6
20260505182201 10 134 1.6 4.8 0.18 0.25 0.20 79 1006.5
20260505181701 10 192 0.0 4.8 0.18 0.25 0.20 79 1006.3
20260505181443 9 0 0.0 3.2 0.18 0.25 0.20 77 1006.1
20260505180701 9 0 0.0 3.2 0.18 0.23 0.18 79 1006.8
20260505180201 9 0 0.0 4.8 0.15 0.20 0.15 77 1007.0
20260505175701 10 0 0.0 6.4 0.13 0.18 0.13 75 1006.9
20260505175446 10 136 0.0 6.4 0.08 0.15 0.10 69 1006.9
20260505174701 10 0 0.0 3.2 0.05 0.13 0.05 67 1006.8
20260505174201 10 0 0.0 3.2 0.05 0.10 0.05 69 1006.8
20260505173702 10 0 0.0 4.8 0.03 0.10 0.05 69 1006.8
20260505173202 10 323 0.0 4.8 0.03 0.10 0.05 71 1006.9
20260505172701 10 0 1.6 6.4 0.00 0.08 0.03 64 1007.1
20260505172201 11 0 1.6 6.4 0.00 0.08 0.03 67 1007.3
20260505171946 11 292 1.6 6.4 0.00 0.08 0.03 63 1007.2
20260505171201 11 257 1.6 9.7 0.00 0.08 0.03 59 1006.7
20260505170701 11 271 1.6 9.7 0.00 0.08 0.03 58 1006.6
20260505170204 11 81 1.6 8.0 0.00 0.08 0.03 58 1006.3
20260505165705 12 358 3.2 11.3 0.00 0.08 0.03 57 1006.1
20260505165203 12 51 3.2 11.3 0.00 0.08 0.03 56 1005.7
20260505164703 12 307 1.6 6.4 0.00 0.08 0.03 57 1005.5
20260505164445 12 73 1.6 6.4 0.00 0.08 0.03 57 1005.6
20260505163703 12 341 3.2 12.9 0.00 0.08 0.03 56 1005.8
20260505163202 12 329 3.2 12.9 0.00 0.08 0.03 57 1005.8
20260505162703 12 294 1.6 6.4 0.00 0.08 0.03 57 1005.6
20260505162202 12 0 1.6 9.7 0.00 0.08 0.03 56 1005.9
20260505161702 12 77 1.6 9.7 0.00 0.08 0.03 57 1005.8
20260505161202 12 261 1.6 9.7 0.00 0.08 0.03 56 1005.7
20260505160702 12 0 3.2 9.7 0.00 0.08 0.03 56 1005.4
20260505160202 12 339 3.2 8.0 0.00 0.08 0.03 55 1005.1
20260505152703 12 221 3.2 11.3 0.00 0.08 0.03 56 1005.9
20260505152203 12 253 3.2 9.7 0.00 0.08 0.03 57 1005.9
20260505151703 12 292 4.8 12.9 0.00 0.08 0.03 57 1005.5
20260505151448 12 353 4.8 12.9 0.00 0.08 0.03 56 1005.3
20260505150702 11 318 4.8 11.3 0.00 0.08 0.03 59 1005.6
20260505150202 12 292 3.2 9.7 0.00 0.08 0.03 60 1005.9
20260505140203 12 307 3.2 11.3 0.00 0.08 0.03 57 1003.7
20260505124702 10 175 3.2 8.0 0.00 0.08 0.03 69 1003.0
20260505124202 9 61 3.2 6.4 0.00 0.08 0.03 69 1002.8
20260505123949 9 28 3.2 8.0 0.00 0.08 0.03 71 1002.9
20260505123202 8 23 3.2 9.7 0.00 0.08 0.03 72 1003.5
20260505122950 8 175 3.2 9.7 0.00 0.08 0.03 72 1003.5
20260505122202 8 308 3.2 12.9 0.00 0.08 0.03 72 1003.5
20260505121703 8 302 3.2 12.9 0.00 0.08 0.03 73 1003.4
20260505121237 8 326 3.2 8.0 0.00 0.08 0.03 75 1003.0
20260505121227 8 333 3.2 9.7 0.00 0.08 0.03 74 1003.1
20260505120203 8 286 1.6 4.8 0.00 0.08 0.03 75 1002.8
20260505115702 8 317 3.2 8.0 0.00 0.08 0.03 77 1002.6
20260505115202 8 0 3.2 8.0 0.00 0.08 0.03 78 1002.7
20260505114702 7 302 3.2 11.3 0.00 0.08 0.03 79 1002.8
20260505114202 7 297 3.2 11.3 0.00 0.08 0.03 79 1002.8
20260505113702 7 294 3.2 11.3 0.00 0.08 0.03 81 1002.5
20260505113451 7 308 3.2 11.3 0.00 0.08 0.03 85 1002.7
20260505112702 7 55 3.2 11.3 0.00 0.08 0.03 85 1002.6
20260505112202 7 317 3.2 11.3 0.00 0.08 0.03 85 1002.2
20260505111948 7 310 3.2 9.7 0.00 0.08 0.03 86 1002.2
20260505111203 8 336 3.2 8.0 0.00 0.08 0.03 87 1002.1
20260505110703 8 309 3.2 9.7 0.00 0.08 0.03 88 1002.0
20260505110203 8 355 1.6 9.7 0.00 0.08 0.03 88 1001.9
20260505102203 13 300 1.6 8.0 0.00 0.08 0.03 89 1000.4
20260505101951 13 0 1.6 8.0 0.00 0.08 0.03 88 1000.5
20260505101203 13 162 1.6 8.0 0.00 0.08 0.03 88 1000.4
20260505100951 13 223 1.6 6.4 0.00 0.08 0.03 88 1000.3
20260505100202 13 349 1.6 11.3 0.00 0.08 0.03 87 1000.3
20260505095702 13 219 3.2 11.3 0.00 0.08 0.03 87 1000.2
20260505095202 13 246 3.2 9.7 0.00 0.08 0.03 87 1000.1
20260505094703 13 350 1.6 9.7 0.00 0.08 0.03 87 999.9
20260505094202 13 230 1.6 8.0 0.00 0.08 0.03 87 999.9
20260505093702 13 303 3.2 12.9 0.00 0.08 0.03 86 999.8
20260505093202 13 137 3.2 12.9 0.00 0.08 0.03 86 999.8
20260505092702 13 214 3.2 11.3 0.00 0.08 0.03 86 999.7
20260505092202 13 164 3.2 9.7 0.00 0.08 0.03 86 999.7
20260505091951 13 307 3.2 9.7 0.00 0.08 0.03 86 999.6
20260505091450 13 289 3.2 9.7 0.00 0.08 0.03 86 999.6
20260505090703 14 245 3.2 11.3 0.00 0.08 0.03 86 999.5
20260505090202 14 192 3.2 11.3 0.00 0.08 0.03 85 999.5
20260505090031 14 175 3.2 11.3 0.00 0.08 0.03 85 999.4
20260505090026 14 221 3.2 11.3 0.00 0.08 0.03 85 999.5
20260505084949 14 127 3.2 11.3 0.00 0.08 0.03 85 999.4
20260505084244 14 220 1.6 11.3 0.00 0.08 0.03 84 999.2
20260505084229 14 225 1.6 11.3 0.00 0.08 0.03 85 999.4
20260505083203 14 0 1.6 8.0 0.00 0.08 0.03 84 999.2
20260505082702 14 270 3.2 8.0 0.00 0.08 0.03 84 999.3
20260505082449 14 187 1.6 8.0 0.00 0.08 0.03 84 999.2
20260505081702 14 152 0.0 4.8 0.00 0.08 0.03 83 999.4
20260505081202 14 0 1.6 8.0 0.00 0.08 0.03 83 999.1
20260505080702 15 0 1.6 9.7 0.00 0.08 0.03 82 999.0
20260505080202 15 265 3.2 9.7 0.00 0.08 0.03 82 998.5
20260505075950 15 236 3.2 8.0 0.00 0.08 0.03 82 998.5
20260505075202 15 0 3.2 9.7 0.00 0.08 0.03 81 998.4
20260505074745 15 280 3.2 12.9 0.00 0.08 0.03 80 998.4
20260505074730 15 261 3.2 11.3 0.00 0.08 0.03 81 998.4
20260505073702 15 197 3.2 12.9 0.00 0.08 0.03 80 998.5
20260505073202 15 206 3.2 12.9 0.00 0.08 0.03 80 998.6
20260505073024 15 0 3.2 12.9 0.03 0.08 0.03 80 998.7
20260505072729 15 291 3.2 11.3 0.00 0.08 0.03 80 998.7
20260505071701 15 0 3.2 12.9 0.03 0.08 0.03 79 998.7
20260505071202 15 247 3.2 12.9 0.03 0.08 0.03 79 998.7
20260505070945 15 271 3.2 9.7 0.03 0.08 0.03 79 998.6
20260505070202 15 294 3.2 16.1 0.03 0.08 0.03 79 998.6
20260505065702 15 105 3.2 16.1 0.03 0.08 0.03 79 998.7
20260505065202 15 227 3.2 12.9 0.03 0.08 0.03 79 998.9
20260505064702 15 323 3.2 12.9 0.03 0.08 0.03 79 998.7
20260505064202 16 242 3.2 9.7 0.03 0.08 0.03 79 998.7
20260505063701 16 239 3.2 9.7 0.03 0.08 0.03 78 998.9
20260505063204 16 328 4.8 11.3 0.03 0.08 0.00 77 998.9
20260505062945 16 217 4.8 12.9 0.00 0.05 0.00 76 999.0
20260505062444 16 172 4.8 12.9 0.00 0.05 0.00 75 998.7
20260505061703 16 163 4.8 16.1 0.00 0.05 0.00 75 999.0
20260505061202 16 316 4.8 16.1 0.00 0.05 0.00 75 999.0
20260505060702 16 183 4.8 14.5 0.00 0.05 0.00 74 999.1
20260505060203 17 186 4.8 16.1 0.00 0.05 0.00 74 999.3
20260505055702 17 235 6.4 17.7 0.00 0.05 0.00 74 999.4
20260505055203 17 229 8.0 20.9 0.00 0.05 0.00 73 999.4
20260505054703 17 168 6.4 20.9 0.00 0.05 0.00 73 999.4
20260505054203 17 238 6.4 20.9 0.00 0.05 0.00 73 999.4
20260505053703 16 229 6.4 17.7 0.00 0.05 0.00 73 999.4
20260505053203 16 218 4.8 17.7 0.00 0.05 0.00 73 999.2
20260505052702 16 243 4.8 12.9 0.00 0.05 0.00 75 999.4
20260505052202 16 190 4.8 14.5 0.00 0.05 0.00 75 999.4
20260505051703 16 205 6.4 14.5 0.00 0.05 0.00 76 999.5
20260505051204 16 228 6.4 14.5 0.00 0.05 0.00 76 999.5
20260505050704 16 232 6.4 14.5 0.00 0.05 0.00 75 999.5
20260505050203 16 243 6.4 12.9 0.00 0.05 0.00 76 999.4